TimeEST,TemperatureF,Dew PointF,Humidity,Sea Level PressureIn,VisibilityMPH,Wind Direction,Wind SpeedMPH,Gust SpeedMPH,PrecipitationIn,Events,Conditions,WindDirDegrees,DateUTC
12:00 AM,33.8,32.0,93,29.85,1.8,WSW,8.1,-,N/A,Snow,Light Snow,240,2014-02-02 05:00:00
12:04 AM,33.8,32.0,93,29.85,2.0,WSW,8.1,-,N/A,Snow,Light Snow,240,2014-02-02 05:04:00
12:54 AM,33.8,32.0,93,29.86,1.8,WSW,9.2,-,N/A,Snow,Light Snow,250,2014-02-02 05:54:00
1:00 AM,33,33,97,29.87,1,WSW,9.2,,,Snow,Light Snow,250,2014-02-02 06:00:00
1:00 AM,32.0,32.0,100,29.86,1.5,West,9.2,-,N/A,Snow,Light Snow,260,2014-02-02 06:00:00
1:01 AM,32.0,32.0,100,29.86,1.5,West,8.1,-,N/A,Snow,Light Snow,260,2014-02-02 06:01:00
1:02 AM,32.0,32.0,100,29.87,1.5,West,8.1,-,N/A,Snow,Light Snow,260,2014-02-02 06:02:00
1:20 AM,33.8,32.0,93,29.87,2.0,WNW,8.1,-,N/A,Snow,Light Snow,290,2014-02-02 06:20:00
1:24 AM,33.8,33.8,100,29.87,3.0,WNW,10.4,-,N/A,Snow,Light Snow,300,2014-02-02 06:24:00
1:31 AM,33.8,32.0,93,29.88,5.0,WNW,9.2,-,N/A,Snow,Light Snow,300,2014-02-02 06:31:00
1:36 AM,33.8,32.0,93,29.88,5.0,WNW,6.9,-,N/A,,Mostly Cloudy,300,2014-02-02 06:36:00
1:37 AM,33.8,32.0,93,29.88,5.0,WNW,6.9,-,N/A,,Scattered Clouds,300,2014-02-02 06:37:00
1:42 AM,33.8,32.0,93,29.88,5.0,WNW,8.1,-,N/A,,Overcast,300,2014-02-02 06:42:00
1:44 AM,33.8,32.0,93,29.88,6.0,WNW,8.1,-,N/A,,Overcast,300,2014-02-02 06:44:00
1:47 AM,33.8,32.0,93,29.88,6.0,WNW,8.1,-,N/A,Rain,Light Rain,300,2014-02-02 06:47:00
1:56 AM,33.8,30.2,87,29.89,8.0,WNW,9.2,-,N/A,,Overcast,290,2014-02-02 06:56:00
2:00 AM,33.8,30.2,87,29.90,8.0,WNW,8.1,-,N/A,,Overcast,300,2014-02-02 07:00:00
3:00 AM,32.0,28.4,87,29.92,9.0,NW,12.7,-,N/A,,Overcast,310,2014-02-02 08:00:00
3:44 AM,32.0,28.4,87,29.94,9.0,NW,6.9,-,N/A,,Mostly Cloudy,310,2014-02-02 08:44:00
4:00 AM,32.0,28.4,87,29.94,9.0,WNW,12.7,-,N/A,,Overcast,300,2014-02-02 09:00:00
5:00 AM,30.2,26.6,86,29.96,9.0,NW,11.5,19.6,N/A,,Overcast,320,2014-02-02 10:00:00
6:00 AM,30.2,26.6,86,29.99,9.0,NW,6.9,-,N/A,,Overcast,320,2014-02-02 11:00:00
7:00 AM,29,25,78,30.01,10,NW,10.4,,,,Clear,320,2014-02-02 12:00:00
7:00 AM,28.4,24.8,86,30.01,9.0,NW,11.5,-,N/A,,Overcast,320,2014-02-02 12:00:00
8:00 AM,28.4,24.8,86,30.01,9.0,NNW,9.2,-,N/A,,Overcast,330,2014-02-02 13:00:00
9:00 AM,28.4,23.0,80,30.06,9.0,NNW,4.6,-,N/A,,Overcast,340,2014-02-02 14:00:00
10:00 AM,28.4,21.2,74,30.08,9.0,NW,11.5,-,N/A,,Overcast,320,2014-02-02 15:00:00
11:00 AM,28.4,23.0,80,30.07,9.0,NW,9.2,-,N/A,,Overcast,310,2014-02-02 16:00:00
12:00 PM,28.4,23.0,80,30.09,9.0,NW,6.9,-,N/A,,Overcast,320,2014-02-02 17:00:00
1:00 PM,29,24,73,30.08,10,WNW,6.9,,,,Overcast,290,2014-02-02 18:00:00
1:00 PM,28.4,23.0,80,30.08,9.0,WNW,8.1,-,N/A,,Overcast,290,2014-02-02 18:00:00
2:00 PM,28.4,23.0,80,30.09,9.0,WNW,12.7,-,N/A,,Overcast,290,2014-02-02 19:00:00
3:00 PM,28.4,21.2,74,30.09,9.0,West,11.5,-,N/A,,Overcast,280,2014-02-02 20:00:00
3:10 PM,30.2,23.0,75,30.09,9.0,WNW,9.2,-,N/A,,Overcast,290,2014-02-02 20:10:00
3:11 PM,30.2,23.0,75,30.09,9.0,West,9.2,-,N/A,,Overcast,280,2014-02-02 20:11:00
3:13 PM,28.4,21.2,74,30.09,9.0,West,12.7,-,N/A,,Overcast,280,2014-02-02 20:13:00
3:18 PM,28.4,21.2,74,30.09,9.0,West,10.4,-,N/A,,Overcast,280,2014-02-02 20:18:00
3:19 PM,28.4,23.0,80,30.09,9.0,West,10.4,-,N/A,,Overcast,280,2014-02-02 20:19:00
4:00 PM,28.4,21.2,74,30.11,9.0,West,15.0,-,N/A,,Mostly Cloudy,280,2014-02-02 21:00:00
5:00 PM,26.6,19.4,74,30.15,9.0,West,11.5,-,N/A,,Overcast,260,2014-02-02 22:00:00
6:00 PM,26.6,17.6,69,30.17,9.0,West,13.8,-,N/A,,Overcast,270,2014-02-02 23:00:00
7:00 PM,25,17,60,30.20,10,West,11.5,,,,Overcast,280,2014-02-03 00:00:00
7:00 PM,24.8,17.6,74,30.20,9.0,West,11.5,17.3,N/A,,Overcast,280,2014-02-03 00:00:00
8:00 PM,23.0,15.8,74,30.21,9.0,WNW,8.1,-,N/A,,Partly Cloudy,290,2014-02-03 01:00:00
9:00 PM,23.0,15.8,74,30.23,9.0,NW,12.7,-,N/A,,Partly Cloudy,310,2014-02-03 02:00:00
9:32 PM,23.0,15.8,74,30.25,9.0,WNW,11.5,-,N/A,Snow,Light Snow,300,2014-02-03 02:32:00
10:00 PM,23.0,15.8,74,30.25,9.0,NW,12.7,-,N/A,Snow,Light Snow,310,2014-02-03 03:00:00
10:08 PM,23.0,15.8,74,30.26,9.0,NW,11.5,-,N/A,,Mostly Cloudy,310,2014-02-03 03:08:00
10:28 PM,23.0,15.8,74,30.25,9.0,NW,11.5,17.3,N/A,Snow,Light Snow,310,2014-02-03 03:28:00
10:37 PM,23.0,15.8,74,30.26,9.0,WNW,12.7,-,N/A,,Scattered Clouds,300,2014-02-03 03:37:00
11:00 PM,21.2,15.8,80,30.25,9.0,WNW,11.5,-,N/A,,Mostly Cloudy,300,2014-02-03 04:00:00